Location: Champs
(48.8539°N, 2.6040°E)
Time: 00:55:29
(UTC+00:00)

USA 308 - Pass Details

Date: 03 June 2022
Orbit: 549 x 558 km, 54.0° (Epoch: 14 June)

Event Time Altitude Azimuth Distance (km) Brightness Sun altitude
Rises 00:04:48 0° 267° (W) 2,730 6.3 -18.8°
Reaches altitude 10° 00:07:06 10° 274° (W) 1,838 5.5 -18.7°
Maximum altitude 00:11:08 46° 349° (NNW) 760 3.9 -18.7°
Drops below altitude 10° 00:15:11 10° 63° (ENE) 1,848 5.9 -18.6°
Sets 00:17:30 0° 69° (ENE) 2,746 6.8 -18.5°
